| time (UTC) | temp F | wind direction | speed MPH | gust MPH | rain 1hr in | rain 24hr in | rain mn in | humidity % | barometer mb |
| 20260506142520 | 72 | 164 | 2.0 | 2.0 | 0.00 | 0.00 | 0.00 | 100 | |
| 20260506142214 | 74 | 100 | 3.0 | 5.0 | 0.00 | 0.00 | 0.00 | 100 | 796.8 |
| 20260506141703 | 75 | 188 | 2.0 | 2.0 | 0.00 | 0.00 | 0.00 | 100 | 796.8 |
| 20260506141152 | 71 | 162 | 2.0 | 4.0 | 0.00 | 0.00 | 0.00 | 100 | 796.8 |
| 20260506140141 | 73 | 137 | 4.0 | 4.0 | 0.00 | 0.00 | 0.00 | 100 | 796.8 |
| 20260506135118 | 75 | 212 | 2.0 | 2.0 | 0.00 | 0.00 | 0.00 | 100 | 796.8 |
| 20260506134618 | 72 | 144 | 3.0 | 3.0 | 0.00 | 0.00 | 0.00 | 100 | 796.8 |
| 20260506134107 | 76 | 195 | 3.0 | 4.0 | 0.00 | 0.00 | 0.00 | 100 | 796.8 |
| 20260506133556 | 77 | 190 | 4.0 | 5.0 | 0.00 | 0.00 | 0.00 | 100 | 796.8 |
| 20260506133045 | 76 | 183 | 4.0 | 6.0 | 0.00 | 0.00 | 0.00 | 100 | 796.8 |
| 20260506132534 | 75 | 151 | 2.0 | 5.0 | 0.00 | 0.00 | 0.00 | 100 | 796.8 |
| 20260506132034 | 75 | 179 | 4.0 | 6.0 | 0.00 | 0.00 | 0.00 | 100 | 796.8 |
| 20260506131523 | 75 | 150 | 3.0 | 6.0 | 0.00 | 0.00 | 0.00 | 100 | 796.8 |
| 20260506131011 | 75 | 251 | 3.0 | 4.0 | 0.00 | 0.00 | 0.00 | 100 | 796.8 |
| 20260506130502 | 75 | 186 | 2.0 | 3.0 | 0.00 | 0.00 | 0.00 | 100 | 796.8 |
| 20260506130004 | 76 | 182 | 3.0 | 3.0 | 0.00 | 0.00 | 0.00 | 100 | 796.8 |
| 20260506125449 | 75 | 167 | 2.0 | 5.0 | 0.00 | 0.00 | 0.00 | 100 | 796.8 |
| 20260506124427 | 73 | 160 | 4.0 | 7.0 | 0.00 | 0.00 | 0.00 | 100 | 796.8 |
| 20260506123915 | 72 | 180 | 3.0 | 6.0 | 0.00 | 0.00 | 0.00 | 100 | 796.8 |
| 20260506123416 | 71 | 159 | 4.0 | 6.0 | 0.00 | 0.00 | 0.00 | 100 | 796.8 |
| 20260506122904 | 73 | 195 | 2.0 | 2.0 | 0.00 | 0.00 | 0.00 | 100 | 796.8 |
| 20260506122354 | 75 | 173 | 4.0 | 4.0 | 0.00 | 0.00 | 0.00 | 100 | 796.8 |
| 20260506121842 | 74 | 118 | 2.0 | 4.0 | 0.00 | 0.00 | 0.00 | 100 | 796.8 |
| 20260506121331 | 73 | 203 | 2.0 | 2.0 | 0.00 | 0.00 | 0.00 | 100 | 796.8 |
| 20260506120827 | 74 | 169 | 3.0 | 5.0 | 0.00 | 0.00 | 0.00 | 100 | 796.8 |
| 20260506120318 | 72 | 218 | 2.0 | 4.0 | 0.00 | 0.00 | 0.00 | 100 | 796.8 |
| 20260506115814 | 71 | 206 | 2.0 | 5.0 | 0.00 | 0.00 | 0.00 | 100 | 796.8 |
| 20260506115306 | 69 | 138 | 2.0 | 2.0 | 0.00 | 0.00 | 0.00 | 100 | 796.8 |
| 20260506114752 | 69 | 156 | 3.0 | 4.0 | 0.00 | 0.00 | 0.00 | 100 | 796.8 |
| 20260506114242 | 70 | 162 | 3.0 | 3.0 | 0.00 | 0.00 | 0.00 | 100 | 796.8 |
| 20260506113730 | 71 | 140 | 2.0 | 2.0 | 0.00 | 0.00 | 0.00 | 100 | 796.8 |
| 20260506113230 | 72 | 205 | 2.0 | 4.0 | 0.00 | 0.00 | 0.00 | 100 | 796.8 |
| 20260506112719 | 73 | 287 | 2.0 | 3.0 | 0.00 | 0.00 | 0.00 | 100 | 796.8 |
| 20260506112208 | 73 | 132 | 3.0 | 6.0 | 0.00 | 0.00 | 0.00 | 100 | 796.8 |
| 20260506111657 | 72 | 163 | 3.0 | 7.0 | 0.00 | 0.00 | 0.00 | 100 | 796.8 |
| 20260506111146 | 72 | 200 | 2.0 | 2.0 | 0.00 | 0.00 | 0.00 | 100 | 796.8 |
| 20260506110648 | 72 | 179 | 3.0 | 4.0 | 0.00 | 0.00 | 0.00 | 100 | 796.8 |
| 20260506110135 | 71 | 186 | 4.0 | 7.0 | 0.00 | 0.00 | 0.00 | 100 | 796.8 |
| 20260506105113 | 70 | 171 | 3.0 | 3.0 | 0.00 | 0.00 | 0.00 | 100 | 796.8 |
| 20260506104101 | 69 | 245 | 5.0 | 8.0 | 0.00 | 0.00 | 0.00 | 100 | 796.8 |
| 20260506103550 | 70 | 194 | 3.0 | 4.0 | 0.00 | 0.00 | 0.00 | 100 | 796.8 |
| 20260506103039 | 70 | 202 | 4.0 | 8.0 | 0.00 | 0.00 | 0.00 | 100 | 796.8 |
| 20260506102527 | 70 | 237 | 3.0 | 6.0 | 0.00 | 0.00 | 0.00 | 100 | 796.8 |
| 20260506102027 | 69 | 234 | 3.0 | 5.0 | 0.00 | 0.00 | 0.00 | 100 | 796.8 |
| 20260506101516 | 68 | 96 | 2.0 | 2.0 | 0.00 | 0.00 | 0.00 | 100 | 796.8 |
| 20260506101007 | 68 | 184 | 3.0 | 6.0 | 0.00 | 0.00 | 0.00 | 100 | 796.8 |
| 20260506100453 | 69 | 208 | 3.0 | 5.0 | 0.00 | 0.00 | 0.00 | 100 | 796.8 |
| 20260506095952 | 69 | 190 | 2.0 | 4.0 | 0.00 | 0.00 | 0.00 | 100 | 796.8 |
| 20260506095441 | 69 | 176 | 2.0 | 3.0 | 0.00 | 0.00 | 0.00 | 100 | 796.8 |
| 20260506094930 | 69 | 142 | 3.0 | 6.0 | 0.00 | 0.00 | 0.00 | 100 | 796.8 |
| 20260506094419 | 69 | 165 | 3.0 | 6.0 | 0.00 | 0.00 | 0.00 | 100 | 796.8 |
| 20260506093908 | 68 | 229 | 3.0 | 6.0 | 0.00 | 0.00 | 0.00 | 100 | 796.8 |
| 20260506093409 | 68 | 188 | 3.0 | 6.0 | 0.00 | 0.00 | 0.00 | 100 | 796.8 |
| 20260506092855 | 67 | 169 | 2.0 | 8.0 | 0.00 | 0.00 | 0.00 | 100 | 796.8 |
| 20260506092344 | 67 | 221 | 3.0 | 4.0 | 0.00 | 0.00 | 0.00 | 100 | 796.8 |
| 20260506090821 | 66 | 192 | 3.0 | 3.0 | 0.00 | 0.00 | 0.00 | 100 | 796.8 |
| 20260506090310 | 66 | 127 | 2.0 | 3.0 | 0.00 | 0.00 | 0.00 | 100 | 796.8 |
| 20260506085259 | 66 | 205 | 3.0 | 4.0 | 0.00 | 0.00 | 0.00 | 100 | 796.8 |
| 20260506084748 | 66 | 163 | 4.0 | 7.0 | 0.00 | 0.00 | 0.00 | 100 | 796.8 |
| 20260506083727 | 66 | 268 | 2.0 | 3.0 | 0.00 | 0.00 | 0.00 | 100 | 798.5 |
| 20260506083215 | 65 | 124 | 2.0 | 2.0 | 0.00 | 0.00 | 0.00 | 100 | 798.5 |
| 20260506082715 | 66 | 76 | 2.0 | 2.0 | 0.00 | 0.00 | 0.00 | 100 | 798.5 |
| 20260506082204 | 65 | 212 | 4.0 | 4.0 | 0.00 | 0.00 | 0.00 | 100 | 798.5 |
| 20260506081655 | 65 | 172 | 3.0 | 6.0 | 0.00 | 0.00 | 0.00 | 100 | 798.5 |
| 20260506081141 | 64 | 18 | 2.0 | 2.0 | 0.00 | 0.00 | 0.00 | 100 | 798.5 |
| 20260506080641 | 64 | 145 | 2.0 | 4.0 | 0.00 | 0.00 | 0.00 | 100 | 798.5 |
| 20260506073034 | 61 | 138 | 3.0 | 5.0 | 0.00 | 0.00 | 0.00 | 100 | 798.5 |
| 20260506072524 | 61 | 194 | 4.0 | 9.0 | 0.00 | 0.00 | 0.00 | 100 | 798.5 |
| 20260506072026 | 60 | 166 | 4.0 | 8.0 | 0.00 | 0.00 | 0.00 | 100 | 798.5 |
| 20260506071512 | 60 | 166 | 3.0 | 4.0 | 0.00 | 0.00 | 0.00 | 100 | 799.0 |
| 20260506071001 | 60 | 147 | 3.0 | 6.0 | 0.00 | 0.00 | 0.00 | 100 | 799.0 |
| 20260506070450 | 60 | 154 | 3.0 | 7.0 | 0.00 | 0.00 | 0.00 | 100 | 799.0 |
| 20260506062341 | 58 | 107 | 2.0 | 3.0 | 0.00 | 0.00 | 0.00 | 100 | 799.0 |
| 20260506061838 | 58 | 137 | 2.0 | 3.0 | 0.00 | 0.00 | 0.00 | 100 | 799.0 |
| 20260506061327 | 58 | 139 | 2.0 | 2.0 | 0.00 | 0.00 | 0.00 | 100 | 799.5 |
| 20260506060816 | 58 | 167 | 2.0 | 3.0 | 0.00 | 0.00 | 0.00 | 100 | 799.5 |
| 20260506060306 | 58 | 261 | 3.0 | 5.0 | 0.00 | 0.00 | 0.00 | 100 | 797.0 |
| 20260506050635 | 57 | 135 | 3.0 | 5.0 | 0.00 | 0.00 | 0.00 | 100 | 792.2 |
| 20260506050125 | 56 | 104 | 4.0 | 6.0 | 0.00 | 0.00 | 0.00 | 100 | 792.2 |
| 20260506045103 | 56 | 175 | 2.0 | 2.0 | 0.00 | 0.00 | 0.00 | 100 | 792.2 |
| 20260506043540 | 56 | 168 | 4.0 | 8.0 | 0.00 | 0.00 | 0.00 | 100 | 792.2 |
| 20260506043032 | 57 | 185 | 2.0 | 3.0 | 0.00 | 0.00 | 0.00 | 100 | 792.2 |
| 20260506042517 | 57 | 166 | 3.0 | 5.0 | 0.00 | 0.00 | 0.00 | 100 | 792.2 |
| 20260506042018 | 57 | 171 | 3.0 | 7.0 | 0.00 | 0.00 | 0.00 | 100 | 792.2 |
| 20260506041507 | 57 | 170 | 4.0 | 6.0 | 0.00 | 0.00 | 0.00 | 100 | 792.2 |
| 20260506040954 | 57 | 163 | 2.0 | 4.0 | 0.00 | 0.00 | 0.00 | 100 | 792.2 |
| 20260506040443 | 57 | 184 | 5.0 | 10.0 | 0.00 | 0.00 | 0.00 | 100 | 792.2 |
| 20260506035943 | 57 | 180 | 5.0 | 9.0 | 0.00 | 0.00 | 0.00 | 100 | 792.2 |
| 20260506034921 | 57 | 176 | 2.0 | 2.0 | 0.00 | 0.00 | 0.00 | 100 | 792.2 |
| 20260506034409 | 57 | 168 | 2.0 | 3.0 | 0.00 | 0.00 | 0.00 | 100 | 792.2 |
| 20260506033858 | 57 | 158 | 3.0 | 8.0 | 0.00 | 0.00 | 0.00 | 100 | 792.2 |
| 20260506033401 | 57 | 159 | 3.0 | 5.0 | 0.00 | 0.00 | 0.00 | 100 | 792.2 |
| 20260506032847 | 57 | 174 | 2.0 | 2.0 | 0.00 | 0.00 | 0.00 | 100 | 792.2 |
| 20260506031825 | 57 | 155 | 2.0 | 4.0 | 0.00 | 0.00 | 0.00 | 100 | 789.9 |
| 20260506030814 | 57 | 127 | 2.0 | 2.0 | 0.00 | 0.00 | 0.00 | 100 | 789.9 |
| 20260506030303 | 58 | 135 | 2.0 | 4.0 | 0.00 | 0.00 | 0.00 | 100 | 789.9 |
| 20260506025751 | 58 | 219 | 3.0 | 3.0 | 0.00 | 0.00 | 0.00 | 100 | 789.9 |
| 20260506025240 | 58 | 122 | 2.0 | 2.0 | 0.00 | 0.00 | 0.00 | 100 | 789.9 |
| 20260506024740 | 58 | 135 | 3.0 | 3.0 | 0.00 | 0.00 | 0.00 | 100 | 789.9 |
| 20260506024229 | 58 | 163 | 3.0 | 4.0 | 0.00 | 0.00 | 0.00 | 100 | 789.9 |
| 20260506023721 | 58 | 201 | 2.0 | 3.0 | 0.00 | 0.00 | 0.00 | 100 | 789.9 |
| 20260506022403 | 59 | 152 | 3.0 | 3.0 | 0.00 | 0.00 | 0.00 | 100 | 789.9 |
| 20260506021153 | 59 | 144 | 3.0 | 3.0 | 0.00 | 0.00 | 0.00 | 100 | 789.9 |
| 20260506015952 | 59 | 113 | 2.0 | 2.0 | 0.00 | 0.00 | 0.00 | 100 | 789.9 |
| 20260506014740 | 59 | 135 | 3.0 | 3.0 | 0.00 | 0.00 | 0.00 | 100 | 789.9 |
| 20260506013531 | 59 | 152 | 2.0 | 3.0 | 0.00 | 0.00 | 0.00 | 100 | 789.9 |
| 20260506012320 | 60 | 107 | 2.0 | 2.0 | 0.00 | 0.00 | 0.00 | 100 | 789.9 |
| 20260506011105 | 59 | 159 | 2.0 | 5.0 | 0.00 | 0.00 | 0.00 | 100 | 789.9 |
| 20260506005854 | 59 | 110 | 2.0 | 3.0 | 0.00 | 0.00 | 0.00 | 100 | 789.9 |
| 20260506004645 | 59 | 153 | 3.0 | 4.0 | 0.00 | 0.00 | 0.00 | 100 | 789.9 |
| 20260506003435 | 58 | 146 | 2.0 | 2.0 | 0.00 | 0.00 | 0.00 | 100 | 789.9 |
| 20260506002224 | 59 | 147 | 2.0 | 2.0 | 0.00 | 0.00 | 0.00 | 100 | 789.9 |
| 20260506001012 | 59 | 95 | 2.0 | 2.0 | 0.00 | 0.00 | 0.00 | 100 | 789.9 |
| 20260505235813 | 59 | 179 | 2.0 | 2.0 | 0.00 | 0.00 | 0.00 | 100 | 789.9 |
| 20260505234604 | 58 | 114 | 3.0 | 3.0 | 0.00 | 0.00 | 0.00 | 100 | 789.9 |
| 20260505233352 | 58 | 234 | 3.0 | 3.0 | 0.00 | 0.00 | 0.00 | 100 | 789.9 |
| 20260505232139 | 60 | 267 | 3.0 | 3.0 | 0.00 | 0.00 | 0.00 | 100 | 789.9 |
| 20260505230929 | 60 | 195 | 2.0 | 3.0 | 0.00 | 0.00 | 0.00 | 100 | 789.9 |
| 20260505225720 | 59 | 25 | 2.0 | 2.0 | 0.00 | 0.00 | 0.00 | 100 | 789.9 |
| 20260505224510 | 60 | 166 | 2.0 | 2.0 | 0.00 | 0.00 | 0.00 | 100 | 789.9 |
| 20260505223257 | 60 | 25 | 2.0 | 2.0 | 0.00 | 0.00 | 0.00 | 100 | 789.9 |
| 20260505222048 | 61 | 109 | 3.0 | 4.0 | 0.00 | 0.00 | 0.00 | 100 | 789.9 |
| 20260505220838 | 61 | 39 | 2.0 | 2.0 | 0.00 | 0.00 | 0.00 | 100 | 789.9 |
| 20260505215636 | 61 | 105 | 2.0 | 3.0 | 0.00 | 0.00 | 0.00 | 100 | 789.9 |
| 20260505214423 | 61 | 97 | 2.0 | 4.0 | 0.00 | 0.00 | 0.00 | 100 | 789.9 |
| 20260505213213 | 62 | 97 | 2.0 | 3.0 | 0.00 | 0.00 | 0.00 | 100 | 789.9 |
| 20260505210754 | 63 | 143 | 2.0 | 3.0 | 0.00 | 0.00 | 0.00 | 100 | 789.9 |
| 20260505205541 | 63 | 172 | 2.0 | 3.0 | 0.00 | 0.00 | 0.00 | 100 | 789.9 |
| 20260505204331 | 64 | 136 | 2.0 | 2.0 | 0.00 | 0.00 | 0.00 | 100 | 789.9 |
| 20260505203122 | 63 | 64 | 2.0 | 2.0 | 0.00 | 0.00 | 0.00 | 100 | 789.9 |
| 20260505201912 | 64 | 141 | 3.0 | 11.0 | 0.00 | 0.00 | 0.00 | 100 | 789.9 |
| 20260505200659 | 63 | 75 | 4.0 | 4.0 | 0.00 | 0.00 | 0.00 | 100 | 789.9 |
| 20260505194236 | 64 | 120 | 2.0 | 2.0 | 0.00 | 0.00 | 0.00 | 100 | 789.9 |
| 20260505193026 | 65 | 343 | 2.0 | 2.0 | 0.00 | 0.00 | 0.00 | 100 | 789.9 |
| 20260505191814 | 65 | 142 | 3.0 | 6.0 | 0.00 | 0.00 | 0.00 | 100 | 789.9 |
| 20260505190611 | 65 | 67 | 2.0 | 2.0 | 0.00 | 0.00 | 0.00 | 100 | 789.9 |
| 20260505185401 | 65 | 54 | 2.0 | 2.0 | 0.00 | 0.00 | 0.00 | 100 | 789.9 |
| 20260505184148 | 66 | 176 | 4.0 | 4.0 | 0.00 | 0.00 | 0.00 | 100 | 789.9 |
| 20260505182831 | 65 | 354 | 2.0 | 2.0 | 0.00 | 0.00 | 0.00 | 100 | 789.9 |
| 20260505182320 | 66 | 32 | 2.0 | 2.0 | 0.00 | 0.00 | 0.00 | 100 | 789.9 |
| 20260505181820 | 67 | 119 | 3.0 | 5.0 | 0.00 | 0.00 | 0.00 | 100 | 789.9 |
| 20260505181309 | 67 | 82 | 2.0 | 3.0 | 0.00 | 0.00 | 0.00 | 100 | 789.9 |
| 20260505180759 | 67 | 134 | 2.0 | 2.0 | 0.00 | 0.00 | 0.00 | 100 | 789.9 |
| 20260505180248 | 67 | 165 | 3.0 | 5.0 | 0.00 | 0.00 | 0.00 | 100 | 789.9 |
| 20260505175738 | 68 | 80 | 3.0 | 3.0 | 0.00 | 0.00 | 0.00 | 100 | 789.9 |
| 20260505175228 | 69 | 136 | 4.0 | 5.0 | 0.00 | 0.00 | 0.00 | 100 | 789.9 |
| 20260505174218 | 70 | 156 | 3.0 | 4.0 | 0.00 | 0.00 | 0.00 | 100 | 789.9 |
| 20260505173707 | 71 | 135 | 3.0 | 4.0 | 0.00 | 0.00 | 0.00 | 100 | 789.9 |
| 20260505173156 | 72 | 149 | 3.0 | 7.0 | 0.00 | 0.00 | 0.00 | 100 | 789.9 |
| 20260505172645 | 72 | 174 | 3.0 | 7.0 | 0.00 | 0.00 | 0.00 | 100 | 789.9 |
| 20260505172146 | 73 | 165 | 3.0 | 6.0 | 0.00 | 0.00 | 0.00 | 100 | 789.9 |
| 20260505171635 | 73 | 147 | 3.0 | 5.0 | 0.00 | 0.00 | 0.00 | 100 | 789.9 |
| 20260505171124 | 74 | 174 | 6.0 | 21.0 | 0.00 | 0.00 | 0.00 | 100 | 789.9 |
| 20260505170614 | 74 | 188 | 3.0 | 4.0 | 0.00 | 0.00 | 0.00 | 100 | 789.9 |
| 20260505170103 | 74 | 155 | 4.0 | 9.0 | 0.00 | 0.00 | 0.00 | 100 | 789.9 |
| 20260505165553 | 74 | 169 | 4.0 | 5.0 | 0.00 | 0.00 | 0.00 | 100 | 789.9 |
| 20260505165053 | 75 | 155 | 5.0 | 12.0 | 0.00 | 0.00 | 0.00 | 100 | 789.9 |
| 20260505164542 | 75 | 157 | 4.0 | 5.0 | 0.00 | 0.00 | 0.00 | 100 | 789.9 |
| 20260505164031 | 75 | 176 | 3.0 | 9.0 | 0.00 | 0.00 | 0.00 | 100 | 789.9 |
| 20260505163521 | 74 | 160 | 4.0 | 7.0 | 0.00 | 0.00 | 0.00 | 100 | 789.9 |
| 20260505163010 | 74 | 126 | 2.0 | 6.0 | 0.00 | 0.00 | 0.00 | 100 | 789.9 |
| 20260505162511 | 75 | 169 | 3.0 | 7.0 | 0.00 | 0.00 | 0.00 | 100 | 789.9 |
| 20260505162000 | 75 | 138 | 3.0 | 8.0 | 0.00 | 0.00 | 0.00 | 100 | 789.9 |
| 20260505160939 | 74 | 162 | 4.0 | 8.0 | 0.00 | 0.00 | 0.00 | 100 | 789.9 |
| 20260505160436 | 73 | 187 | 4.0 | 12.0 | 0.00 | 0.00 | 0.00 | 100 | 789.9 |
| 20260505153342 | 75 | 164 | 3.0 | 6.0 | 0.00 | 0.00 | 0.00 | 100 | 789.9 |
| 20260505152321 | 75 | 231 | 3.0 | 9.0 | 0.00 | 0.00 | 0.00 | 100 | 789.9 |
| 20260505151811 | 75 | 160 | 2.0 | 4.0 | 0.00 | 0.00 | 0.00 | 100 | 789.9 |
| 20260505151300 | 75 | 211 | 3.0 | 8.0 | 0.00 | 0.00 | 0.00 | 100 | 789.9 |
| 20260505150800 | 75 | 142 | 2.0 | 4.0 | 0.00 | 0.00 | 0.00 | 100 | 789.9 |
| 20260505150249 | 75 | 166 | 4.0 | 7.0 | 0.00 | 0.00 | 0.00 | 100 | 789.9 |